Flag for Germany Weather past 2 weeks in Freising, Bavaria, Germany

Now
49 °F

Passing clouds.


Feels Like: 45 °F
Forecast: 32 / 57 °F
Wind: 8 mph from East

Location: Muenchen Flughafen

Current Time: Apr 19, 2015 at 12:27:54 PM

Latest Report: Apr 19, 2015 at 12:00 PM


Visibility: 31 mi

Pressure: 30.17 "Hg

Humidity: 49%

Dew point: 30 °F

Location of FreisingLocation

Historic Weather in Freising — Graph

°F

Freising temperature yesterday

Maximum temperature yesterday: 50 °F (at 4:00 PM)
Minimum temperature yesterday: 37 °F (at 10:00 PM)
Average temperature yesterday: 44 °F

Past Weeks' High & Low Weather Summary

 TemperatureHumidityPressure
High73 °F (Apr 15, 5:00 PM)98% (Apr 9, 4:00 AM)30.66 "Hg (Apr 9, 4:00 AM)
Low24 °F (Apr 7, 6:00 AM)23% (Apr 15, 6:00 PM)29.83 "Hg (Apr 17, 2:00 PM)
Average48 °F66%30.25 "Hg
* Reported Apr 4 11:00 AM — Apr 19 11:00 AM, Freising, Weather by CustomWeather, © 2015

Note: Actual official high and low records may vary slightly from our data, if they occured in-between our weather recording intervals... More about our weather records

Advertising

Freising weather history for previous 24 hours

 ConditionsComfort  
Time TempWeatherWind HumidityBarometerVisibility
11:00 AM
Sun, Apr 19
47 °FPassing clouds.8 mph51%30.18 "Hg28 mi
10:00 AM45 °FPassing clouds.6 mph63%30.18 "Hg25 mi
9:00 AM41 °FPassing clouds.5 mph76%30.19 "Hg19 mi
8:00 AM36 °FPassing clouds.2 mph81%30.21 "Hg19 mi
7:00 AM33 °FPassing clouds.1 mph88%30.22 "Hg19 mi
6:00 AM34 °FPassing clouds.2 mph86%30.22 "Hg19 mi
5:00 AM34 °FClear.1 mph84%30.23 "Hg22 mi
4:00 AM30 °FClear.2 mph94%30.27 "Hg28 mi
3:00 AM32 °FClear.2 mph90%30.28 "Hg28 mi
2:00 AM35 °FClear.1 mph81%30.28 "Hg28 mi
1:00 AM33 °FClear.2 mph89%30.29 "Hg31 mi
12:00 AM34 °FClear.2 mph84%30.28 "Hg31 mi
11:00 PM
Sat, Apr 18
37 °FClear.1 mph81%30.27 "Hg31 mi
10:00 PM37 °FClear.1 mph73%30.28 "Hg37 mi
9:00 PM41 °FPassing clouds.No wind64%30.26 "Hg37 mi
8:00 PM47 °FPassing clouds.1 mph43%30.23 "Hg37 mi
7:00 PM48 °FPassing clouds.2 mph43%30.22 "Hg37 mi
6:00 PM50 °FPassing clouds.1 mph40%30.22 "Hg37 mi
5:00 PM50 °FPassing clouds.3 mph45%30.22 "Hg37 mi
4:00 PM50 °FScattered clouds.2 mph48%30.23 "Hg37 mi
3:00 PM47 °FPartly sunny.3 mph46%30.24 "Hg37 mi
2:00 PM48 °FPartly sunny.3 mph47%30.24 "Hg37 mi
1:00 PM46 °FPartly sunny.5 mph53%30.24 "Hg37 mi
12:00 PM47 °FPartly sunny.5 mph57%30.23 "Hg37 mi
Weather by CustomWeather, © 2015

See weather overviewHow to use our weather pages